Regional Weather Roundup
Issued by NWS

Home | Current Version | Previous Version | Graphics & Text | Print | Product List | Glossary On
Versions: 1 2 3 4 5 6 7 8 9 10 11 12 13 14 15 16 17 18 19 20 21 22 23 24 25 26 27 28 29 30 31 32 33 34 35 36 37 38 39 40 41 42 43 44 45 46 47 48 49 50
771
ASUS43 KBIS 240202
RWRND

NORTH DAKOTA REGIONAL WEATHER ROUNDUP
NATIONAL WEATHER SERVICE BISMARCK ND
800 PM CST THU NOV 23 2017

NOTE: "FAIR" INDICATES FEW OR NO CLOUDS BELOW 12,000 FEET WITH NO
SIGNIFICANT WEATHER AND/OR OBSTRUCTIONS TO VISIBILITY.


NDZ001>003-009>011-017-240300-
NORTHWEST NORTH DAKOTA

CITY           SKY/WX    TMP DP  RH WIND       PRES   REMARKS
WILLISTON      CLEAR     55  36  48 SW9       29.40F
MINOT          CLEAR     56  37  49 SW15      29.35F
MINOT AFB      CLEAR     55  37  51 W18G24    29.32F
$$

NDZ018>021-031>035-040>046-240300-
SOUTHWEST NORTH DAKOTA

CITY           SKY/WX    TMP DP  RH WIND       PRES   REMARKS
BISMARCK       CLEAR     48  35  60 S7        29.49F
DICKINSON      CLEAR     54  36  50 SW16      29.50F
GARRISON         N/A     52  38  58 SW17      29.41F
HETTINGER ARPT CLEAR     51  35  54 W5        29.59F
$$

NDZ004>008-012>016-024-026-027-054-240300-
NORTHEAST NORTH DAKOTA

CITY           SKY/WX    TMP DP  RH WIND       PRES   REMARKS
GRAND FORKS    CLEAR     36  32  85 S14       29.37F
GRND FRKS AFB  CLEAR     39  35  83 SW12      29.37F
DEVILS LAKE    CLEAR     47  36  65 SW17      29.37F
$$

NDZ022-023-025-028>030-036>039-047>053-240300-
SOUTHEAST NORTH DAKOTA

CITY           SKY/WX    TMP DP  RH WIND       PRES   REMARKS
FARGO          CLEAR     43  33  68 S14       29.46F
JAMESTOWN      CLEAR     53  39  59 SW15      29.45F
$$





USA.gov is the U.S. government's official web portal to all federal, state and local government web resources and services.